GW0058 Weather Reports


Display with metric or nautical units.
time (UTC)temp
F
wind
direction
speed
MPH
gust
MPH
rain 1hr
in
rain 24hr
in
rain mn
in
humidity
%
barometer
mb
20260906155547 87 117 4.0 8.0 0.00 0.00 0.00 63 1016.3
20260906155049 87 211 1.0 6.0 0.00 0.00 0.00 64 1016.3
20260906154553 87 269 2.0 6.0 0.00 0.00 0.00 64 1016.2
20260906154047 86 269 2.0 6.0 0.00 0.00 0.00 66 1016.3
20260906153549 85 194 2.0 5.0 0.00 0.00 0.00 68 1016.4
20260906153100 85 252 2.0 5.0 0.00 0.00 0.00 71 1016.1
20260906152546 85 219 1.0 5.0 0.00 0.00 0.00 70 1016.2
20260906152046 85 229 1.0 5.0 0.00 0.00 0.00 70 1016.2
20260906151613 84 349 1.0 5.0 0.00 0.00 0.00 73 1016.0
20260906151050 84 0 1.0 4.0 0.00 0.00 0.00 73 1016.1
20260906150549 83 0 0.0 5.0 0.00 0.00 0.00 75 1016.0
20260906150105 83 153 2.0 6.0 0.00 0.00 0.00 75 1016.0
20260906145548 83 46 0.0 6.0 0.00 0.00 0.00 76 1015.9
20260906145050 83 161 2.0 6.0 0.00 0.00 0.00 77 1016.0
20260906144556 83 143 1.0 3.0 0.00 0.00 0.00 77 1016.0
20260906144047 82 0 0.0 5.0 0.00 0.00 0.00 77 1016.0
20260906143548 82 165 1.0 5.0 0.00 0.00 0.00 78 1015.9
20260906143119 82 0 0.0 5.0 0.00 0.00 0.00 79 1015.8
20260906142549 82 0 1.0 5.0 0.00 0.00 0.00 79 1015.9
20260906142051 81 151 1.0 5.0 0.00 0.00 0.00 81 1015.8
20260906141558 81 241 2.0 5.0 0.00 0.00 0.00 82 1015.8
20260906141050 80 176 1.0 6.0 0.00 0.00 0.00 83 1015.7
20260906140547 80 0 1.0 6.0 0.00 0.00 0.00 85 1015.6
20260906140100 79 0 1.0 5.0 0.00 0.00 0.00 86 1015.8
20260906135550 79 61 1.0 4.0 0.00 0.00 0.00 87 1015.7
20260906135054 78 166 1.0 4.0 0.00 0.00 0.00 87 1015.8
20260906134603 78 171 1.0 4.0 0.00 0.00 0.00 88 1015.8
20260906134047 77 150 2.0 4.0 0.00 0.00 0.00 88 1015.6
20260906133551 76 207 1.0 2.0 0.00 0.00 0.00 88 1015.6
20260906133108 76 153 0.0 2.0 0.00 0.00 0.00 88 1015.6
20260906132547 75 0 0.0 1.0 0.00 0.00 0.00 88 1015.5
20260906132049 75 0 0.0 0.0 0.00 0.00 0.00 87 1015.5
20260906131603 75 0 0.0 0.0 0.00 0.00 0.00 87 1015.2
20260906131046 75 0 0.0 0.0 0.00 0.00 0.00 87 1015.2
20260906130546 75 0 0.0 0.0 0.00 0.00 0.00 87 1015.0
20260906130053 75 0 0.0 0.0 0.00 0.00 0.00 86 1014.9
20260906125549 75 0 0.0 1.0 0.00 0.00 0.00 86 1014.9
20260906125049 75 0 0.0 1.0 0.00 0.00 0.00 86 1014.8
20260906124600 74 0 0.0 1.0 0.00 0.00 0.00 86 1014.8
20260906124050 75 0 0.0 1.0 0.00 0.00 0.00 85 1014.9
20260906123550 75 181 0.0 3.0 0.00 0.00 0.00 85 1014.7
20260906123135 75 0 0.0 3.0 0.00 0.00 0.00 85 1014.8
20260906122548 75 181 0.0 4.0 0.00 0.00 0.00 84 1014.9
20260906122050 75 165 0.0 4.0 0.00 0.00 0.00 84 1014.8
20260906121559 75 160 1.0 4.0 0.00 0.00 0.00 84 1014.8
20260906121050 75 0 0.0 0.0 0.00 0.00 0.00 83 1014.2
20260906120547 75 0 0.0 0.0 0.00 0.00 0.00 83 1014.1
20260906120059 75 0 0.0 0.0 0.00 0.00 0.00 83 1014.1
20260906115550 76 0 0.0 0.0 0.00 0.00 0.00 83 1014.0
20260906115046 76 0 0.0 0.0 0.00 0.00 0.00 83 1014.0
20260906114601 76 0 0.0 0.0 0.00 0.00 0.00 83 1014.0
20260906114049 76 0 0.0 0.0 0.00 0.00 0.00 84 1014.0
20260906113546 76 0 0.0 0.0 0.00 0.00 0.00 84 1013.9
20260906113104 76 0 0.0 0.0 0.00 0.00 0.00 84 1013.9
20260906112546 76 0 0.0 0.0 0.00 0.00 0.00 84 1013.8
20260906112049 76 0 0.0 0.0 0.00 0.00 0.00 84 1013.6
20260906111559 76 0 0.0 0.0 0.00 0.00 0.00 84 1013.6
20260906111050 76 0 0.0 0.0 0.00 0.00 0.00 84 1013.6
20260906110550 76 0 0.0 0.0 0.00 0.00 0.00 84 1013.5
20260906110105 76 0 0.0 0.0 0.00 0.00 0.00 84 1013.4
20260906105547 76 0 0.0 0.0 0.00 0.00 0.00 84 1013.4
20260906105049 76 0 0.0 0.0 0.00 0.00 0.00 84 1013.4
20260906104607 76 0 0.0 0.0 0.00 0.00 0.00 84 1013.4
20260906104049 76 0 0.0 0.0 0.00 0.00 0.00 84 1013.3
20260906103547 76 0 0.0 0.0 0.00 0.00 0.00 83 1013.2
20260906103106 76 0 0.0 0.0 0.00 0.00 0.00 83 1013.0
20260906102548 76 0 0.0 0.0 0.00 0.00 0.00 83 1013.0
20260906102046 76 0 0.0 0.0 0.00 0.00 0.00 83 1013.2
20260906101601 76 0 0.0 0.0 0.00 0.00 0.00 83 1013.2
20260906101047 76 0 0.0 0.0 0.00 0.00 0.00 83 1013.2
20260906100548 77 0 0.0 0.0 0.00 0.00 0.00 83 1013.0
20260906100059 77 0 0.0 0.0 0.00 0.00 0.00 83 1013.1
20260906095550 77 0 0.0 1.0 0.00 0.00 0.00 83 1013.2
20260906095050 77 0 0.0 1.0 0.00 0.00 0.00 83 1013.3
20260906094607 77 0 0.0 0.0 0.00 0.00 0.00 82 1013.3
20260906094046 77 0 0.0 0.0 0.00 0.00 0.00 82 1013.4
20260906093550 77 0 0.0 1.0 0.00 0.00 0.00 82 1013.4
20260906093057 77 0 0.0 2.0 0.00 0.00 0.00 82 1013.4
20260906092547 77 0 0.0 2.0 0.00 0.00 0.00 82 1013.4
20260906092050 77 0 0.0 1.0 0.00 0.00 0.00 81 1013.5
20260906091608 77 0 0.0 2.0 0.00 0.00 0.00 81 1013.4
20260906091049 77 250 0.0 2.0 0.00 0.00 0.00 81 1013.4
20260906090550 78 0 0.0 3.0 0.00 0.00 0.00 81 1013.5
20260906090107 78 0 0.0 3.0 0.00 0.00 0.00 81 1013.5
20260906085550 78 0 0.0 2.0 0.00 0.00 0.00 81 1013.5
20260906085049 78 0 0.0 2.0 0.00 0.00 0.00 80 1013.5
20260906084602 78 0 0.0 2.0 0.00 0.00 0.00 80 1013.5
20260906084050 78 0 0.0 1.0 0.00 0.00 0.00 80 1013.4
20260906083550 78 0 0.0 2.0 0.00 0.00 0.00 80 1013.4
20260906083104 78 217 0.0 2.0 0.00 0.00 0.00 80 1013.5
20260906082547 79 0 0.0 3.0 0.00 0.00 0.00 80 1013.6
20260906082052 79 0 1.0 4.0 0.00 0.00 0.00 80 1013.6
20260906081604 79 0 1.0 6.0 0.00 0.00 0.00 79 1013.6
20260906081050 79 219 2.0 6.0 0.00 0.00 0.00 79 1013.7
20260906080549 79 186 2.0 6.0 0.00 0.00 0.00 79 1013.6
20260906080058 79 200 1.0 5.0 0.00 0.00 0.00 78 1013.7
20260906075546 79 0 0.0 5.0 0.00 0.00 0.00 78 1013.8
20260906075047 79 167 1.0 5.0 0.00 0.00 0.00 77 1013.9
20260906074555 79 180 1.0 4.0 0.00 0.00 0.00 77 1013.9
20260906074046 79 181 1.0 4.0 0.00 0.00 0.00 77 1014.1
20260906073550 80 0 0.0 3.0 0.00 0.00 0.00 76 1014.1
20260906073100 80 198 1.0 5.0 0.00 0.00 0.00 76 1014.1
20260906072550 80 0 1.0 5.0 0.00 0.00 0.00 76 1014.0
20260906072049 80 164 1.0 5.0 0.00 0.00 0.00 75 1014.1
20260906071555 80 186 1.0 5.0 0.00 0.00 0.00 75 1014.1
20260906071050 80 0 1.0 5.0 0.00 0.00 0.00 75 1014.3
20260906070547 80 132 2.0 5.0 0.00 0.00 0.00 74 1014.2
20260906070104 80 151 2.0 4.0 0.00 0.00 0.00 74 1014.4
20260906065550 80 173 2.0 5.0 0.00 0.00 0.00 73 1014.3
20260906065053 80 190 2.0 5.0 0.00 0.00 0.00 73 1014.4
20260906064557 80 175 3.0 6.0 0.00 0.00 0.00 73 1014.5
20260906064050 81 164 2.0 6.0 0.00 0.00 0.00 72 1014.5
20260906063546 81 151 1.0 6.0 0.00 0.00 0.00 72 1014.6
20260906063100 81 185 2.0 6.0 0.00 0.00 0.00 71 1014.6
20260906062546 81 153 3.0 5.0 0.00 0.00 0.00 71 1014.6
20260906062048 81 132 1.0 4.0 0.00 0.00 0.00 71 1014.7
20260906061554 81 168 1.0 4.0 0.00 0.00 0.00 71 1014.7
20260906061046 81 0 2.0 6.0 0.00 0.00 0.00 71 1014.8
20260906060546 81 167 2.0 6.0 0.00 0.00 0.00 71 1014.8
20260906060105 82 163 2.0 5.0 0.00 0.00 0.00 71 1014.7
20260906055550 82 225 2.0 4.0 0.00 0.00 0.00 71 1014.7
20260906055050 82 184 1.0 5.0 0.00 0.00 0.00 71 1014.6
20260906054605 82 184 2.0 6.0 0.00 0.00 0.00 71 1014.5
20260906054050 82 167 2.0 6.0 0.00 0.00 0.00 71 1014.6
20260906053549 82 169 2.0 6.0 0.00 0.00 0.00 70 1014.5
20260906053104 82 160 1.0 4.0 0.00 0.00 0.00 70 1014.6
20260906052549 82 231 1.0 7.0 0.00 0.00 0.00 70 1014.7
20260906052049 82 196 3.0 7.0 0.00 0.00 0.00 69 1014.7
20260906051556 83 183 1.0 5.0 0.00 0.00 0.00 69 1014.7
20260906051053 83 176 1.0 5.0 0.00 0.00 0.00 69 1014.6
20260906050548 83 170 1.0 7.0 0.00 0.00 0.00 69 1014.6
20260906050106 83 179 2.0 7.0 0.00 0.00 0.00 69 1014.7
20260906045548 83 142 2.0 9.0 0.00 0.00 0.00 69 1014.7
20260906045050 83 167 3.0 9.0 0.00 0.00 0.00 68 1014.7
20260906044557 83 180 3.0 9.0 0.00 0.00 0.00 68 1014.8
20260906044050 83 129 3.0 7.0 0.00 0.00 0.00 68 1014.8
20260906043549 84 160 3.0 7.0 0.00 0.00 0.00 67 1014.9
20260906043059 84 138 3.0 7.0 0.00 0.00 0.00 67 1014.8
20260906042547 84 159 2.0 12.0 0.00 0.00 0.00 66 1014.8
20260906042050 84 174 4.0 12.0 0.00 0.00 0.00 65 1014.9
20260906041603 84 171 3.0 8.0 0.00 0.00 0.00 65 1014.8
20260906041049 84 0 3.0 10.0 0.00 0.00 0.00 64 1014.7
20260906040553 85 146 1.0 10.0 0.00 0.00 0.00 63 1014.8
20260906040058 85 192 1.0 5.0 0.00 0.00 0.00 62 1014.7
20260906035550 85 151 0.0 6.0 0.00 0.00 0.00 62 1014.7
20260906035047 85 116 2.0 6.0 0.00 0.00 0.00 62 1014.6
20260906034553 85 142 2.0 9.0 0.00 0.00 0.00 61 1014.4
20260906034046 85 138 3.0 9.0 0.00 0.00 0.00 61 1014.5
20260906033549 86 153 3.0 9.0 0.00 0.00 0.00 61 1014.4
20260906033104 86 146 4.0 9.0 0.00 0.00 0.00 60 1014.3
20260906032550 86 142 3.0 8.0 0.00 0.00 0.00 59 1014.1
20260906032046 86 185 4.0 9.0 0.00 0.00 0.00 59 1014.1
20260906031600 86 196 3.0 9.0 0.00 0.00 0.00 58 1014.1
20260906031053 86 163 4.0 8.0 0.00 0.00 0.00 58 1014.0
20260906030549 86 138 3.0 8.0 0.00 0.00 0.00 58 1014.0
20260906030057 86 145 1.0 3.0 0.00 0.00 0.00 58 1013.8
20260906025549 87 132 0.0 4.0 0.00 0.00 0.00 57 1013.8
20260906025050 87 139 0.0 4.0 0.00 0.00 0.00 57 1013.6
20260906024553 87 147 1.0 3.0 0.00 0.00 0.00 57 1013.4
20260906024046 87 146 1.0 5.0 0.00 0.00 0.00 57 1013.3
20260906023551 87 164 1.0 5.0 0.00 0.00 0.00 56 1013.3
20260906023056 87 132 2.0 7.0 0.00 0.00 0.00 56 1013.0
20260906022546 88 146 1.0 7.0 0.00 0.00 0.00 55 1013.0
20260906022052 88 146 1.0 7.0 0.00 0.00 0.00 55 1012.9
20260906021607 88 120 1.0 7.0 0.00 0.00 0.00 55 1012.9
20260906021049 88 173 2.0 7.0 0.00 0.00 0.00 54 1012.8
20260906020550 88 143 2.0 7.0 0.00 0.00 0.00 54 1012.8
20260906020107 89 0 3.0 8.0 0.00 0.00 0.00 54 1012.8
20260906015549 89 170 3.0 12.0 0.00 0.00 0.00 53 1012.6
20260906015049 89 131 3.0 12.0 0.00 0.00 0.00 53 1012.6
20260906014554 89 139 3.0 10.0 0.00 0.00 0.00 52 1012.5
20260906014046 89 88 4.0 13.0 0.00 0.00 0.00 51 1012.5
20260906013549 90 106 7.0 13.0 0.00 0.00 0.00 50 1012.4
20260906013107 90 135 4.0 11.0 0.00 0.00 0.00 49 1012.5
20260906012552 90 159 4.0 9.0 0.00 0.00 0.00 48 1012.4
20260906012049 90 174 1.0 6.0 0.00 0.00 0.00 47 1012.4
20260906011605 90 69 0.0 5.0 0.00 0.00 0.00 46 1012.3
20260906011052 91 153 0.0 1.0 0.00 0.00 0.00 44 1012.4
20260906010549 91 0 0.0 1.0 0.00 0.00 0.00 44 1012.4
20260906010057 91 0 0.0 0.0 0.00 0.00 0.00 44 1012.2
20260906005549 91 0 0.0 0.0 0.00 0.00 0.00 44 1012.1
20260906005046 91 0 0.0 1.0 0.00 0.00 0.00 44 1012.1
20260906004610 91 0 0.0 1.0 0.00 0.00 0.00 43 1012.1
20260906004050 91 0 0.0 4.0 0.00 0.00 0.00 44 1012.0
20260906003550 92 0 0.0 4.0 0.00 0.00 0.00 43 1011.9
20260906003103 92 0 0.0 4.0 0.00 0.00 0.00 42 1012.0
20260906002550 92 72 1.0 9.0 0.00 0.00 0.00 42 1012.0
20260906002047 93 134 2.0 9.0 0.00 0.00 0.00 42 1011.9
20260906001553 93 0 0.0 3.0 0.00 0.00 0.00 42 1011.9
20260906001046 93 0 0.0 4.0 0.00 0.00 0.00 42 1012.0
20260906000546 94 0 1.0 5.0 0.00 0.00 0.00 42 1012.1
20260906000106 94 34 2.0 5.0 0.00 0.00 0.00 42 1012.0
20260905235553 94 148 1.0 5.0 0.00 0.00 0.00 41 1012.0
20260905235050 94 150 1.0 4.0 0.00 0.00 0.00 41 1012.1
20260905234559 95 98 1.0 8.0 0.00 0.00 0.00 41 1012.0
20260905234050 95 150 2.0 8.0 0.00 0.00 0.00 40 1012.0
20260905233550 95 174 2.0 7.0 0.00 0.00 0.00 40 1012.0
20260905233059 95 128 3.0 9.0 0.00 0.00 0.00 39 1012.0
20260905232548 96 157 4.0 9.0 0.00 0.00 0.00 40 1012.0
20260905232050 96 59 2.0 6.0 0.00 0.00 0.00 38 1012.0
20260905231603 96 0 2.0 7.0 0.00 0.00 0.00 38 1011.9
20260905231046 96 133 2.0 9.0 0.00 0.00 0.00 38 1011.9
20260905230549 96 202 2.0 9.0 0.00 0.00 0.00 37 1011.9
20260905230059 96 165 2.0 8.0 0.00 0.00 0.00 38 1012.0
20260905225549 96 143 2.0 9.0 0.00 0.00 0.00 37 1011.9
20260905225049 96 235 3.0 9.0 0.00 0.00 0.00 38 1012.0
20260905224555 95 197 3.0 10.0 0.00 0.00 0.00 38 1011.9
20260905224050 96 148 5.0 11.0 0.00 0.00 0.00 37 1011.9
20260905223552 96 157 5.0 11.0 0.00 0.00 0.00 37 1011.9
20260905223101 96 148 3.0 9.0 0.00 0.00 0.00 36 1012.0
20260905222549 97 165 3.0 8.0 0.00 0.00 0.00 36 1012.0
20260905222049 97 155 1.0 9.0 0.00 0.00 0.00 36 1012.0
20260905221553 98 94 1.0 9.0 0.00 0.00 0.00 35 1012.1
20260905221050 96 140 1.0 9.0 0.00 0.00 0.00 37 1012.2
20260905220546 96 139 3.0 9.0 0.00 0.00 0.00 36 1012.2
20260905220052 96 148 3.0 9.0 0.00 0.00 0.00 36 1012.2
20260905215550 96 166 1.0 12.0 0.00 0.00 0.00 36 1012.2
20260905215049 96 169 4.0 12.0 0.00 0.00 0.00 36 1012.3
20260905214601 97 150 4.0 9.0 0.00 0.00 0.00 36 1012.3
20260905214050 96 148 3.0 8.0 0.00 0.00 0.00 37 1012.2
20260905213550 96 355 3.0 9.0 0.00 0.00 0.00 37 1012.3
20260905213053 96 102 4.0 9.0 0.00 0.00 0.00 38 1012.3
20260905212550 95 160 3.0 10.0 0.00 0.00 0.00 38 1012.3
20260905212046 95 168 3.0 10.0 0.00 0.00 0.00 38 1012.3
20260905211556 96 142 4.0 10.0 0.00 0.00 0.00 37 1012.3
20260905211050 96 121 3.0 6.0 0.00 0.00 0.00 38 1012.3
20260905210549 96 217 3.0 7.0 0.00 0.00 0.00 38 1012.4
20260905210118 96 260 3.0 10.0 0.00 0.00 0.00 38 1012.5
20260905205550 96 159 5.0 10.0 0.00 0.00 0.00 38 1012.7
20260905205050 96 248 4.0 8.0 0.00 0.00 0.00 38 1012.7
20260905204602 96 144 3.0 7.0 0.00 0.00 0.00 38 1012.7
20260905204050 98 95 3.0 7.0 0.00 0.00 0.00 38 1012.9
20260905203547 97 88 2.0 9.0 0.00 0.00 0.00 39 1012.9
20260905203054 96 150 3.0 9.0 0.00 0.00 0.00 38 1013.0
20260905202550 96 186 4.0 9.0 0.00 0.00 0.00 38 1013.1
20260905202049 96 149 4.0 13.0 0.00 0.00 0.00 38 1013.1
20260905201552 96 123 4.0 13.0 0.00 0.00 0.00 38 1013.3
20260905201046 96 157 4.0 13.0 0.00 0.00 0.00 39 1013.2
20260905200546 95 159 2.0 10.0 0.00 0.00 0.00 39 1013.3
20260905200107 96 157 3.0 10.0 0.00 0.00 0.00 38 1013.5
20260905195549 96 182 4.0 10.0 0.00 0.00 0.00 38 1013.5
20260905195051 94 144 5.0 10.0 0.00 0.00 0.00 39 1013.6
20260905194609 95 198 2.0 10.0 0.00 0.00 0.00 42 1013.6
20260905194050 95 232 3.0 10.0 0.00 0.00 0.00 39 1013.8
20260905193549 95 132 4.0 10.0 0.00 0.00 0.00 39 1013.9
20260905193056 95 122 2.0 11.0 0.00 0.00 0.00 43 1013.8
20260905192547 94 190 4.0 11.0 0.00 0.00 0.00 44 1013.8
20260905192051 93 327 3.0 10.0 0.00 0.00 0.00 41 1014.0
20260905191556 94 180 2.0 10.0 0.00 0.00 0.00 42 1014.1
20260905191046 93 204 5.0 10.0 0.00 0.00 0.00 44 1014.1
20260905190551 91 144 4.0 9.0 0.00 0.00 0.00 48 1014.3
20260905190056 91 163 1.0 9.0 0.00 0.00 0.00 48 1014.3
20260905185551 93 150 3.0 9.0 0.00 0.00 0.00 47 1014.4
20260905185050 90 38 3.0 8.0 0.00 0.00 0.00 49 1014.5
20260905184621 91 174 2.0 8.0 0.00 0.00 0.00 49 1014.6
20260905184050 93 141 3.0 10.0 0.00 0.00 0.00 46 1014.7
20260905183550 94 0 3.0 12.0 0.00 0.00 0.00 46 1014.7
20260905183055 95 135 4.0 12.0 0.00 0.00 0.00 47 1014.8
20260905182546 94 191 3.0 11.0 0.00 0.00 0.00 47 1014.9
20260905182049 94 167 5.0 11.0 0.00 0.00 0.00 48 1015.0
20260905181602 94 174 4.0 9.0 0.00 0.00 0.00 49 1015.1
20260905181050 93 134 3.0 10.0 0.00 0.00 0.00 49 1015.1
20260905180550 92 94 4.0 10.0 0.00 0.00 0.00 50 1015.2
20260905180100 92 173 3.0 12.0 0.00 0.00 0.00 54 1015.3
20260905175550 91 160 3.0 12.0 0.00 0.00 0.00 51 1015.5
20260905175050 92 162 5.0 12.0 0.00 0.00 0.00 50 1015.7
20260905174556 91 42 2.0 9.0 0.00 0.00 0.00 55 1015.7
20260905174051 90 197 3.0 9.0 0.00 0.00 0.00 57 1015.7
20260905173550 89 182 2.0 8.0 0.00 0.00 0.00 55 1015.8
20260905173111 89 205 3.0 12.0 0.00 0.00 0.00 56 1015.9
20260905172550 89 155 3.0 12.0 0.00 0.00 0.00 56 1016.0
20260905172053 90 182 3.0 7.0 0.00 0.00 0.00 56 1016.0
20260905171608 89 205 3.0 9.0 0.00 0.00 0.00 58 1016.1
20260905171049 89 170 3.0 11.0 0.00 0.00 0.00 57 1016.1
20260905170550 89 141 3.0 11.0 0.00 0.00 0.00 58 1016.1
20260905170055 89 183 3.0 8.0 0.00 0.00 0.00 59 1016.2
20260905165550 90 150 4.0 9.0 0.00 0.00 0.00 54 1016.2
20260905165046 90 218 4.0 9.0 0.00 0.00 0.00 55 1016.2
20260905164603 88 123 3.0 9.0 0.00 0.00 0.00 60 1016.3
20260905164047 88 184 3.0 9.0 0.00 0.00 0.00 61 1016.3
20260905163546 87 200 3.0 8.0 0.00 0.00 0.00 64 1016.3
20260905163111 87 200 3.0 8.0 0.00 0.00 0.00 65 1016.3
20260905162550 87 254 3.0 7.0 0.00 0.00 0.00 65 1016.3
20260905162050 87 215 3.0 10.0 0.00 0.00 0.00 66 1016.3
20260905161606 87 113 5.0 10.0 0.00 0.00 0.00 66 1016.3
20260905161047 87 175 6.0 10.0 0.00 0.00 0.00 64 1016.4
20260905160549 87 122 3.0 9.0 0.00 0.00 0.00 68 1016.3
20260905160107 86 253 3.0 9.0 0.00 0.00 0.00 69 1016.4